Regional Weather Roundup
Issued by NWS

Home | Current Version | Previous Version | Graphics & Text | Print | Product List | Glossary On
Versions: 1 2 3 4 5 6 7 8 9 10 11 12 13 14 15 16 17 18 19 20 21 22 23 24 25 26 27 28 29 30 31 32 33 34 35 36 37 38 39 40 41 42 43 44 45 46 47 48 49 50
000
ASUS45 KPSR 212000
RWRAZ

PRELIMINARY ARIZONA REGIONAL HOURLY WEATHER ROUNDUP
NATIONAL WEATHER SERVICE PHOENIX AZ
100 PM MST SUN SEP 21 2014

NOTE: FAIR INDICATES FEW OR NO CLOUDS BELOW 12,000 FEET WITH NO
SIGNIFICANT WEATHER AND/OR OBSTRUCTIONS TO VISIBILITY.

AZZ001>003-036-212100-
NORTHWEST ARIZONA

CITY           SKY/WX    TMP DP  RH WIND       PRES   REMARKS
KINGMAN        MOSUNNY   89  42  19 SW18G26   30.05F
$$

AZZ004>008-015-016-018-212100-
NORTH CENTRAL ARIZONA

CITY           SKY/WX    TMP DP  RH WIND       PRES   REMARKS
GRAND CANYON   PTSUNNY   73  53  49 SW13      30.27F
PRESCOTT       MOSUNNY   80  47  31 VRB5G17   30.18F
FLAGSTAFF      PTSUNNY   70  51  51 SW17      30.31F
PAYSON         PTSUNNY   81  59  47 S9        30.20F
PAGE           SUNNY     79  55  43 N9        30.14F
$$

AZZ009>014-017-212100-
NORTHEAST ARIZONA

CITY           SKY/WX    TMP DP  RH WIND       PRES   REMARKS
WINSLOW        NOT AVBL
SAINT JOHNS    PTSUNNY   80  53  39 W9        30.19F
SHOW LOW       CLOUDY    68  54  60 S23G37    30.30R
$$

AZZ023-212100-
GREATER PHOENIX AREA

CITY           SKY/WX    TMP DP  RH WIND       PRES   REMARKS
PHOENIX        MOSUNNY   96  51  21 N3        29.90F
GLENDALE       MOSUNNY   95  50  21 S5        29.92R
DEER VALLEY    MOSUNNY   95  45  17 N5        29.92F
SCOTTSDALE     SUNNY     94  55  26 CALM      29.94F
MESA-FALCON    MOSUNNY   93  50  22 W6        29.93F
MESA-GATEWAY   MOSUNNY   95  50  21 SW8       29.95F
CHANDLER       MOSUNNY   93  54  26 VRB6      29.93F
$$

AZZ027-028-212100-
SOUTHWEST MARICOPA COUNTY AND PINAL COUNTY

CITY           SKY/WX    TMP DP  RH WIND       PRES   REMARKS
CASA GRANDE    SUNNY     93  48  21 CALM      29.94F
$$

AZZ503-504-507>509-212100-
SOUTHEAST ARIZONA

CITY           SKY/WX    TMP DP  RH WIND       PRES   REMARKS
TUCSON         MOSUNNY   91  62  37 N3        30.01F
DAVIS-MONTHAN  SUNNY     89  64  43 NW1       29.99F
RYAN FIELD       N/A     91  61  35 S8        30.00F
NOGALES        PTSUNNY   87  64  46 SW5       30.08F
SIERRA VISTA   PTSUNNY   83  62  49 VRB6      30.13F
SAFFORD        MOSUNNY   88  65  46 VRB7      30.02F
$$

AZZ020-021-025-026-031-212100-
SOUTHWEST ARIZONA

CITY           SKY/WX    TMP DP  RH WIND       PRES   REMARKS
YUMA           MOSUNNY   99  50  19 S6        29.83F
$$

CAZ031-033-041-043-047-048-061-212100-
SOUTHERN CALIFORNIA

CITY           SKY/WX    TMP DP  RH WIND       PRES   REMARKS
DOWNTOWN L.A.  SUNNY     77  60  55 VRB5      29.96F
L.A. AIRPORT   MOSUNNY   75  58  55 W10       29.98F
SAN DIEGO      MOSUNNY   77  58  51 W10       29.97F
BURBANK        SUNNY     76  57  51 VRB3      29.97F
ONTARIO        SUNNY     75  59  57 S7        29.98F
RIVERSIDE      SUNNY     75  60  59 W6        29.98F
PALM SPRINGS   SUNNY     94  48  20 VRB5      29.88F
EL CENTRO NAS  SUNNY     96  47  18 SE6       29.82F
IMPERIAL       SUNNY     96  45  17 VRB5      29.82F
BLYTHE         SUNNY     95  55  26 CALM      29.85F
$$

NVZ020-UTZ003-212100-
SOUTHERN NEVADA-UTAH

CITY           SKY/WX    TMP DP  RH WIND       PRES   REMARKS
LAS VEGAS      NOT AVBL
SALT LAKE CITY LGT RAIN  65  57  75 W10       30.17F
$$

NMZ009-TXZ055-212100-
NEW MEXICO-WEST TEXAS

CITY           SKY/WX    TMP DP  RH WIND       PRES   REMARKS
ALBUQUERQUE    PTSUNNY   80  52  37 E18       30.24F
EL PASO        PTSUNNY   85  62  46 VRB7      30.10F
$$


........................KEY........................
SKY/WX - SKY CONDITION/WEATHER
TMP    - TEMPERATURE IN FAHRENHEIT
DP     - DEW POINT IN FAHRENHEIT
RH     - RELATIVE HUMIDITY IN PERCENT
WIND   - DIRECTION AND SPEED IN MILES PER HOUR (MPH)
VRB    - VARIABLE WIND DIRECTION
PRES   - MEAN SEA LEVEL PRESSURE IN INCHES OF MERCURY
         F - FALLING PRESSURE   R - RISING PRESSURE
         S - STEADY PRESSURE
VSB    - VISIBILITY IN MILES
HX     - HEAT INDEX IN FAHRENHEIT
WCI    - WIND CHILL INDEX IN FAHRENHEIT
TC     - TEMPERATURE IN CELSIUS WHICH IS ALSO KNOWN AS
         TEMPERATURE IN CENTIGRADE
AFB    - AIR FORCE BASE
         LUKE AFB IS LUKE AIR FORCE BASE
         DAVIS-MONTHAN IS DAVIS-MONTHAN AIR FORCE BASE
NAS    - NAVAL AIR STATION
         EL CENTRO NAS IS EL CENTRO NAVAL AIR STATION
N/A    - NOT AVAILABLE



USA.gov is the U.S. government's official web portal to all federal, state and local government web resources and services.